www.pogodaiklimat.ru

Погода и климат >> Архив погоды >> Вьетнам >> Донгхой


ПОГОДА в Донгхое

  • Прогноз погоды в Донгхое
  • Монитор погоды в Донгхое

АРХИВ ПОГОДЫ в Донгхое

Время (UTC), дата Ветер
(напр.,м/с)
 
Видим.   Явления Облачность Т
(С)
Тd
(С)
f
(%)
Тe
(С)
Тes
(С)
Комфортность P
(гПа)
Po
(гПа)
Тmin
(С)
Tmax
(С)
R
(мм)
R24
(мм)
S
(см)
00 9.09 ЮЗ 3 20 км 9/3 600 м
[Cu Sc Cs]
+30.2 +24.3 71 +42 +43 опасность
перегрева
1004.5 1003.7 +29.2
03 9.09 ЮЗ 3 20 км 9/1 600 м
[Cu med, cong Cs]
+33.7 +24.5 59 +47 +57 опасность
перегрева
1004.3 1003.5
06 9.09 Ю 4 20 км 9/1 600 м
[Cu med, cong Cs]
+34.6 +24.9 57 +48 +57 опасность
перегрева
1002.4 1001.6
09 9.09 ЮЗ 4 20 км 9/1 600 м
[Cu med, cong Cs]
+34.8 +24.6 56 +48 +50 опасность
перегрева
1001.2 1000.4
12 9.09 Ю 2 20 км 9/1 1500 м
[Sc Cs]
+31.4 +23.8 64 +43 +43 опасность
перегрева
1003.1 1002.3 +35.0
15 9.09 Ю 1 20 км 9/5 600 м
[Cu Sc Cs]
+30.6 +24.3 69 +43 +43 опасность
перегрева
1005.1 1004.3
18 9.09 Ю 2 20 км 10/1 600 м
[Cu med, cong Cs]
+30.5 +24.0 68 +42 +42 опасность
перегрева
1003.9 1003.1
21 9.09 ЮЗ 2 20 км зарница 10/1 600 м
[Cb cap Cs]
+29.9 +24.0 71 +41 +41 опасность
перегрева
1003.4 1002.6
00 10.09 Ю 4 20 км 9/3 600 м
[Cu Sc Cs]
+29.8 +23.9 71 +41 +42 опасность
перегрева
1005.5 1004.7 +29.7
03 10.09 ЮЗ 2 20 км 10/3 600 м
[Cu Sc Cs]
+31.6 +24.1 65 +44 +53 опасность
перегрева
1007.1 1006.3
06 10.09 Ю 4 20 км 10/10 600 м
[Cu Sc]
+32.5 +24.4 62 +45 +45 опасность
перегрева
1005.5 1004.7
09 10.09 Ю 2 20 км 9/9 600 м
[Cu Sc]
+32.2 +24.5 64 +45 +45 опасность
перегрева
1004.7 1003.9
12 10.09 Ю 3 20 км 9/3 600 м
[Cu med, cong Cs]
+30.1 +23.6 68 +41 +41 опасность
перегрева
1006.8 1006.0 +32.8
15 10.09 Ю 2 20 км 9/1 600 м
[Cu med, cong Cs]
+29.4 +23.4 70 +40 +40 очень
душно
1008.9 1008.1
18 10.09 Ю 2 20 км 9/3 1500 м
[Sc Cs]
+29.2 +22.7 68 +39 +39 очень
душно
1009.2 1008.4
21 10.09 ЮЗ 4 20 км 9/3 600 м
[Cu hum Cs]
+28.5 +22.9 72 +38 +38 очень
душно
1008.3 1007.5
00 11.09 ЮВ 2 20 км 9/9 600 м
[Cu Sc]
+28.3 +23.8 77 +39 +39 очень
душно
1010.2 1009.4 +27.6
03 11.09 Ю 1 20 км 9/9 600 м
[Cu Sc]
+30.1 +23.7 69 +41 +43 опасность
перегрева
1012.2 1011.4
06 11.09 ЮЗ 3 20 км 9/6 600 м
[Cu Sc Cs]
+30.9 +22.4 61 +40 +46 очень
душно
1010.0 1009.2
09 11.09 ЮЗ 2 20 км 9/1 600 м
[Cu med, cong Cs]
+31.6 +22.5 59 +41 +45 опасность
перегрева
1008.2 1007.4
12 11.09 ЮЗ 2 20 км 9/1 1500 м
[Sc Cs]
+29.8 +21.8 62 +38 +38 очень
душно
1009.7 1008.9 +32.4
15 11.09 штиль 0 20 км 9/0
[Cs]
+28.0 +22.0 70 +36 +36 очень
душно
1011.2 1010.4
18 11.09 штиль 0 20 км 8/0
[Cs]
+27.2 +22.6 76 +36 +36 очень
душно
1010.2 1009.4
21 11.09 штиль 0 20 км 9/3 600 м
[Cu med, cong Cs]
+26.1 +23.0 83 +35 +35 очень
душно
1009.8 1009.0
00 12.09 ЮЗ 1 20 км 9/3 600 м
[Cb cap Cs]
+27.4 +23.0 77 +37 +38 очень
душно
1010.8 1010.0 +25.6
03 12.09 З 2 20 км 9/9 600 м
[Cu Sc]
+31.4 +23.0 61 +42 +43 опасность
перегрева
1011.9 1011.1
06 12.09 С 3 20 км 8/3 600 м
[Cu med, cong Cs]
+31.6 +25.7 71 +47 +56 опасность
перегрева
1009.3 1008.5
09 12.09 С 5 20 км гроза без осадков 8/3 600 м
[Cb cap Cs]
+30.6 +25.5 74 +45 +46 опасность
перегрева
1007.2 1006.4
12 12.09 С 1 20 км {гроза} 9/3
[Cu med, cong Cs]
+29.1 +26.3 85 +44 +44 опасность
перегрева
1008.8 1008.0 +32.6
15 12.09 штиль 0 20 км 9/3 600 м
[Cu med, cong Cs]
+27.8 +25.9 89 +41 +41 опасность
перегрева
1010.1 1009.3
18 12.09 З 1 20 км 9/4 600 м
[Cu med, cong Cs]
+26.5 +24.9 91 +38 +38 очень
душно
1009.0 1008.2
21 12.09 З 1 20 км 9/0
[Cs]
+25.8 +24.0 90 +36 +36 очень
душно
1007.7 1006.9
00 13.09 З 1 20 км 9/0
[Cs]
+26.4 +24.0 87 +37 +38 очень
душно
1009.0 1008.2 +25.5
03 13.09 С 3 20 км 8/3 600 м
[Cb cap Cs]
+31.2 +23.8 65 +43 +51 опасность
перегрева
1009.9 1009.1
06 13.09 С 2 20 км 9/4 600 м
[Cu Sc Cs]
+31.2 +24.8 69 +44 +54 опасность
перегрева
1007.9 1007.1
09 13.09 С 3 20 км 8/3 600 м
[Cu Sc Cs]
+30.4 +24.8 72 +43 +46 опасность
перегрева
1006.6 1005.8
12 13.09 СВ 1 20 км 9/3 600 м
[Cu med, cong Cs]
+29.2 +25.3 80 +43 +43 опасность
перегрева
1007.3 1006.5 +32.0
15 13.09 З 1 20 км 9/4 600 м
[Cu med, cong Cs]
+27.5 +25.6 89 +40 +40 очень
душно
1009.0 1008.2
18 13.09 штиль 0 20 км 9/3 600 м
[Cu med, cong Cs]
+27.0 +24.5 86 +38 +38 очень
душно
1008.1 1007.3
21 13.09 штиль 0 20 км 9/0
[Cs]
+26.7 +25.4 93 +39 +39 очень
душно
1007.5 1006.7
00 14.09 З 1 20 км 9/3 600 м
[Cu med, cong Cs]
+27.0 +25.3 90 +39 +40 очень
душно
1008.6 1007.8 +26.7
03 14.09 С 3 20 км 9/3 600 м
[Cu med, cong Cs]
+31.3 +23.8 64 +42 +50 опасность
перегрева
1009.6 1008.8
06 14.09 С 4 20 км 9/5 600 м
[Cu med, cong Cs]
+31.6 +26.1 73 +48 +53 опасность
перегрева
1008.6 1007.8
09 14.09 С 2 20 км 8/4 600 м
[Cu med, cong Cs]
+31.0 +25.6 73 +46 +48 опасность
перегрева
1006.8 1006.0
12 14.09 СВ 1 20 км 8/1 600 м
[Cu hum Cs]
+29.5 +25.2 78 +43 +43 опасность
перегрева
1007.4 1006.6 +32.0
15 14.09 ЮЗ 1 20 км 8/3 600 м
[Cu med, cong Cs]
+27.7 +25.7 89 +41 +41 опасность
перегрева
1009.4 1008.6
18 14.09 штиль 0 20 км 8/1 600 м
[Cu med, cong Cs]
+26.7 +25.2 91 +38 +38 очень
душно
1008.6 1007.8
21 14.09 штиль 0 20 км 8/1 600 м
[Cu med, cong Cs]
+26.0 +24.8 93 +37 +37 очень
душно
1007.9 1007.1
00 15.09 З 1 20 км 8/3 600 м
[Cu med, cong Cs]
+26.6 +25.4 93 +39 +40 очень
душно
1009.2 1008.4 +25.5
03 15.09 С 2 20 км 8/3 600 м
[Cu med, cong Cs]
+31.2 +24.3 67 +43 +53 опасность
перегрева
1009.6 1008.8
06 15.09 С 3 20 км 8/3 600 м
[Cu med, cong Cs]
+32.5 +23.4 59 +43 +53 опасность
перегрева
1007.8 1007.0
09 15.09 СВ 2 20 км 8/1 600 м
[Cu med, cong Cs]
+31.6 +24.5 66 +44 +48 опасность
перегрева
1005.9 1005.1
12 15.09 СВ 1 20 км 9/1 600 м
[Cu hum Cs]
+29.7 +25.7 79 +44 +44 опасность
перегрева
1006.7 1005.9 +32.8
15 15.09 З 1 20 км 9/3 600 м
[Cu med, cong Cs]
+27.7 +25.2 86 +40 +40 очень
душно
1008.6 1007.8
18 15.09 штиль 0 20 км 9/4 600 м
[Cu med, cong Cs]
+27.2 +25.2 89 +39 +39 очень
душно
1007.9 1007.1
21 15.09 штиль 0 20 км 8/0
[Cs]
+26.0 +24.5 91 +36 +36 очень
душно
1007.4 1006.6

 

Местоположение метеостанции Донгхой (Вьетнам): широта 17.48 долгота 106.60 высота над уровнем моря 8 м.

В архиве по умолчанию представлена погода в Донгхое за последнюю неделю. Архивные данные за месяц целиком и за предыдущие месяцы, начиная с января 2011 года, Вы можете получить, выбрав интересующий диапазон дат из раскрывающегося списка и нажав кнопку "Ввод!".


*Определитесь, кто Вы:
робот инопланетянин человек

Внимание! Время в таблицах - всемирное. Для получения местного времени необходимо прибавить поправку, которая равна 7 ч.

Смотрите также архив погоды в соседних городах и на ближайших метеорологических станциях:

Погода в Хатине (Вьетнам) (122 км)
Погода в Хюэ (Вьетнам) (157 км)
Погода в Вине (Вьетнам) (164 км)
Погода в Сено (Лаос) (192 км)
Погода в Накхонпханом Агромете (Таиланд) (193 км)
Погода в Накхонпханоме (Таиланд) (193 км)
Погода в Сараване (Лаос) (198 км)
Погода в Тхакхэке (Лаос) (207 км)
Погода в Саваннакете (Лаос) (221 км)
Погода в Мукдахане (Таиланд) (227 км)

Пояснения к столбцам:

Ветер - указаны скорость ветра в м/с - средняя за 10 мин, порывы в срок и между сроками (в фигурных скобках) и направление, откуда дует ветер: С - северный, СВ - северо-восточный, В - восточный, ЮВ - юго-восточный, Ю - южный, ЮЗ - юго-западный, З - западный, СЗ - северо-западный.
Видимость - горизонтальная дальность видимости в метрах или километрах. При видимости от 1 до 10 км при отсутствии осадков обычно наблюдается дымка, при ухудшении видимости до 1 км и менее - туман. В сухую погоду видимость может ухудшаться дымом, пылью или мглою.
Явления - указаны атмосферные явления, наблюдавшиеся в срок или в последний час перед сроком; фигурными скобками обозначены явления, наблюдавшиеся между сроками (за 1-3 часа до срока); квадратными скобками обозначены град или гололедные отложения с указанием их диаметра в мм.
Облачность - указаны через наклонную черту общая и нижняя облачность в баллах и высота нижней границы облаков в метрах; квадратными скобками обозначены формы облаков: Ci - перистые, Cs - перисто-слоистые, Cc - перисто-кучевые, Ac - высококучевые, As - высокослоистые, Sc - слоисто-кучевые, Ns - слоисто-дождевые, Cu - кучевые, Cb - кучево-дождевые. Подробнее классификацию облаков см. в Атласе облаков (PDF).
T - Температура воздуха - температура, измеренная на высоте 2 м над землей.
Td - Температура точки росы - температура, при понижении до которой содержащийся в воздухе водяной пар достигнет насыщения.
f - Относительная влажность воздуха - влажноcть воздуха, измеренная на высоте 2 м над землей.
Te - Эффективная температура - температура, которую ощущает одетый по сезону человек в тени. Характеристика душности погоды. При расчете учитывается влияние влажности воздуха и скорости ветра на теплоощущения человека.
Tes - Эффективная температура на солнце - температура, которую ощущает человек, с поправкой на солнечный нагрев. Характеристика знойности погоды. Зависит от высоты солнца над горизонтом, облачности и скорости ветра. Ночью, в пасмурную погоду, а также при ветре 12 м/с и более поправка равна нулю.
P - Атмосферное давление - приведенное к уровню моря атмосферное давление.
Po - Атмосферное давление - измеренное на уровне метеостанции атмосферное давление.
Tmin - Минимальная температура - минимум температуры воздуха на высоте 2 м над землей.
Tmax - Максимальная температура - максимум температуры воздуха на высоте 2 м над землей.
R - Количество осадков - Количество выпавших осадков за период времени, мм. При наведении курсора мыши на число - период времени, за который выпало указанное количество осадков.
R24 - Количество осадков - Количество выпавших осадков за 24 часа, мм.
S - Снежный покров - Высота снежного покрова, см. При наведении курсора мыши на число - состояние снежного покрова и степень покрытия местности в баллах.